Location: Unspecified
(50.7822°N, 1.1356°W)
Time: 11:35:56
(UTC+01:00)

Daily predictions for brighter satellites

Satellite Brightness Start Highest point End
(mag) Time Altitude Azimuth Time Altitude Azimuth Time Altitude Azimuth
Cosmos 1110 Rocket 4.4 22:01:10 10° NNW 22:06:18 62° WSW 22:11:23 10° S
NOSS 8 (A) 4.5 22:03:59 10° SW 22:07:09 77° NW 22:10:32 10° NE
S3M 4.3 22:04:21 10° SSE 22:10:32 57° E 22:16:47 10° NNE
Iridium 81 3.9 22:08:52 10° S 22:11:28 73° E 22:14:38 10° N
IGS 5A 4.2 22:07:57 10° SE 22:11:51 41° ENE 22:15:46 10° N
ATLAS 5 CENTAUR R/B 3.5 22:11:04 10° SE 22:13:26 14° ESE 22:15:54 10° ENE
SL-08 RB Rocket 4.3 22:08:53 10° S 22:13:30 59° W 22:18:08 10° NNW
Cosmos 1238 Rocket 3.3 22:10:47 10° SSW 22:13:40 46° WNW 22:16:48 10° N
SPOT 5 3.2 22:09:33 10° SSE 22:14:41 75° ENE 22:20:02 10° NNW
Aureole 1 Rocket 4.3 22:12:26 10° SW 22:15:46 41° WNW 22:20:00 10° NNE
ATLAS 2AS CENTAUR R/B 3.1 22:10:26 10° SSW 22:18:20 77° SE 22:26:28 10° NE
Meteor 1-24 Rocket 4.2 22:12:22 10° SSW 22:18:24 72° WNW 22:24:24 10° N
Timation 1 Rocket 4.3 22:13:05 10° SSW 22:19:01 74° ESE 22:25:01 10° NE
CARTOSAT-1 4.0 22:15:41 10° SE 22:19:51 49° ENE 22:24:03 10° N
Lacrosse 5 1.9 22:15:18 10° SW 22:20:23 87° SE 22:25:29 10° ENE
Cosmos 2082 Rocket 3.0 22:16:05 10° NNW 22:21:34 44° NE 22:27:01 10° ESE
Cosmos 1833 Rocket 3.3 22:17:23 10° NNW 22:22:51 49° NE 22:28:17 10° SE
SPOT 1/Viking Rocket 3.6 22:18:54 10° SSE 22:24:02 86° ENE 22:29:14 10° NNW
Cosmos-2242 4.4 22:20:02 10° NNW 22:24:08 38° W 22:28:11 10° SSW
NOSS 3-2 (C) 4.1 22:16:50 10° NW 22:24:12 87° SW 22:32:25 10° SE
H-2A R/B 2.9 22:19:05 10° S 22:24:16 51° W 22:29:34 10° NNW
Cosmos 494 Rocket 4.0 22:20:54 10° SSW 22:26:09 82° ESE 22:31:28 10° NNE
KORONAS-FOTON 3.8 22:22:15 10° S 22:26:10 87° E 22:30:08 10° N
SL-14 R/B 3.8 22:23:37 10° SSE 22:27:17 40° E 22:31:01 10° NNE
CZ-2C R/B 3.9 22:26:33 10° NE 22:30:55 24° E 22:35:01 11° SE
Cosmos 1553 Rocket 4.0 22:27:10 10° S 22:33:14 89° E 22:39:23 10° N
Helios 1B rocket 2.8 22:36:33 10° NNE 22:40:33 48° E 22:44:31 10° S
SL-27 R/B 3.6 22:39:18 10° N 22:42:42 35° ENE 22:45:45 12° SE
Cosmos 1842 Rocket 3.9 22:38:35 10° NNW 22:42:53 62° W 22:47:11 10° S
Helios 1A 3.3 22:38:51 10° S 22:42:59 63° WSW 22:47:13 10° NNW
DMSP B5D2-2 4.1 22:40:59 10° NNE 22:46:16 86° WNW 22:51:30 10° SSW
YAOGAN 11 4.4 22:44:06 12° SSE 22:48:11 60° ENE 22:52:40 10° N
CENTAUR R/B 3.2 22:42:39 10° NW 22:50:23 79° NE 22:58:45 11° SE
Landsat 7 4.1 22:45:56 10° S 22:50:40 68° WSW 22:55:27 10° NNW
Cosmos 1626 2.8 22:47:55 13° SSE 22:50:50 38° E 22:54:20 10° NNE
ERS-1 Rocket 4.2 22:48:16 10° SSW 22:52:56 37° W 22:57:37 10° NNW
NOSS 2-2 (E) 4.4 22:49:57 10° S 22:53:18 28° ESE 22:57:12 10° ENE
Cosmos 2315 Rocket 4.4 22:47:43 11° SSE 22:53:40 52° E 22:59:48 10° NNE
Cosmos 1340 4.1 22:50:26 10° NNW 22:53:54 34° W 22:57:20 10° SSW
Spot 1 4.2 22:50:57 12° SSE 22:54:59 88° WSW 22:59:44 10° NNW
NOSS 3-4 (A) 3.7 22:49:42 10° SSW 22:55:34 48° ESE 23:01:45 10° NE
NOSS 3-4 (C) 3.7 22:49:48 10° SSW 22:55:40 47° ESE 23:01:50 10° NE
Cosmos 2251 Rocket 3.5 22:58:34 10° SSW 23:03:55 87° ESE 23:09:16 10° NNE
Cosmos 1992 Rocket 4.0 22:58:44 10° NNW 23:03:59 80° ENE 23:08:16 15° SSE
Terra 2.1 23:05:51 13° S 23:10:05 67° WSW 23:14:52 10° NNW
Cosmos 1455 2.8 23:08:03 10° N 23:11:42 44° ENE 23:14:13 18° SE
Cosmos 1300 3.7 23:09:23 10° NNW 23:13:00 41° W 23:16:30 11° SSW
Cosmos 2221 3.0 23:09:32 10° NNW 23:13:47 55° W 23:17:34 12° S
Iridium 67 3.0 23:14:35 10° NNW 23:16:08 50° W 23:16:25 40° SW
Okean 3 Rocket 3.6 23:14:47 15° S 23:18:18 65° E 23:22:40 10° NNE
RESURS DK-1 3.2 23:18:31 18° SSE 23:20:49 31° ESE 23:24:32 10° NE
CZ-2C R/B 3.5 23:16:21 14° S 23:21:30 68° WSW 23:27:12 10° NNW
Cosmos 2278 Rocket 2.2 23:16:38 10° SSW 23:22:20 89° ESE 23:28:04 10° NNE
Nimbus 7 Rocket 4.5 23:17:24 10° NNE 23:23:26 75° ESE 23:29:18 11° S
NOSS 2-2 (D) 3.8 23:20:39 13° SSW 23:23:58 43° ESE 23:28:18 10° NE
Cosmos 1328 Rocket 4.1 23:22:32 10° N 23:26:44 45° ENE 23:29:38 19° SE
Cosmos 2228 Rocket 4.2 23:23:13 10° N 23:27:18 33° ENE 23:30:18 16° SE
SL-8 R/B 3.7 23:25:41 10° WSW 23:30:28 62° S 23:35:15 10° E
Meteor 1-29 3.4 23:28:03 10° N 23:31:25 58° WNW 23:34:31 11° SSW
ATLAS 3B R/B 4.1 23:28:04 10° WNW 23:33:13 25° WSW 23:38:20 10° SSW
Cosmos 1461 3.3 23:31:28 10° SW 23:36:10 84° NW 23:41:00 10° NE
Cosmos 407 Rocket 4.4 23:35:09 19° SSE 23:37:57 31° ESE 23:42:29 10° NE
Cosmos 1328 3.9 23:34:47 14° SSW 23:38:04 72° WNW 23:42:02 10° N
Spot 4 3.9 23:35:43 19° SSE 23:39:12 87° WSW 23:44:07 10° NNW
SAR-Lupe-4 3.5 23:40:23 24° SSE 23:42:27 83° ENE 23:46:04 10° NNW
Meteor 2-2 Rocket 4.4 23:39:49 10° NNW 23:45:26 67° W 23:49:42 18° S
COSMOS 2487 3.9 23:42:20 10° N 23:45:31 30° ENE 23:47:50 15° ESE
NOSS 2-2 (C) 3.4 23:46:08 10° SSW 23:50:01 71° SE 23:54:40 10° NE
Cosmos 2369 Rocket 3.9 23:49:38 13° SE 23:51:57 17° E 23:55:23 10° ENE
Cosmos 1441 Rocket 3.1 23:48:25 10° NNW 23:52:15 85° E 23:54:18 26° SSE
